date,time,SUV Intensity [MED/Hr],UV Index,Daily total [MED],Since Last [MED]
04/09/2022,00:12:30,0.000,0.0,0.0,0.0
04/09/2022,00:13:29,0.000,0.0,0.0,0.0
04/09/2022,00:14:30,0.000,0.0,0.0,0.0
04/09/2022,00:15:29,0.000,0.0,0.0,0.0
04/09/2022,00:16:29,0.000,0.0,0.0,0.0
04/09/2022,00:17:29,0.000,0.0,0.0,0.0
04/09/2022,00:18:30,0.000,0.0,0.0,0.0
04/09/2022,00:19:30,0.000,0.0,0.0,0.0
04/09/2022,00:20:29,0.000,0.0,0.0,0.0
04/09/2022,00:21:30,0.000,0.0,0.0,0.0
04/09/2022,00:22:29,0.000,0.0,0.0,0.0
04/09/2022,00:23:30,0.000,0.0,0.0,0.0
04/09/2022,00:24:29,0.000,0.0,0.0,0.0
04/09/2022,00:25:37,-0.001,0.0,0.0,0.0
04/09/2022,00:26:29,0.000,0.0,0.0,0.0
04/09/2022,00:27:29,0.000,0.0,0.0,0.0
04/09/2022,00:28:29,0.000,0.0,0.0,0.0
04/09/2022,00:29:29,0.000,0.0,0.0,0.0
04/09/2022,00:30:29,0.000,0.0,0.0,0.0
04/09/2022,00:31:29,0.000,0.0,0.0,0.0
04/09/2022,00:32:29,0.000,0.0,0.0,0.0
04/09/2022,00:33:29,0.001,0.0,0.0,0.0
04/09/2022,00:34:29,0.001,0.0,0.0,0.0
04/09/2022,00:35:37,0.000,0.0,0.0,0.0
04/09/2022,00:36:29,0.000,0.0,0.0,0.0
04/09/2022,00:37:29,0.000,0.0,0.0,0.0
04/09/2022,00:38:29,0.000,0.0,0.0,0.0
04/09/2022,00:39:29,0.000,0.0,0.0,0.0
04/09/2022,00:40:30,0.000,0.0,0.0,0.0
04/09/2022,00:41:29,0.001,0.0,0.0,0.0
04/09/2022,00:42:29,-0.001,0.0,0.0,0.0
04/09/2022,00:43:29,0.000,0.0,0.0,0.0
04/09/2022,00:44:28,0.000,0.0,0.0,0.0
04/09/2022,00:45:28,0.000,0.0,0.0,0.0
04/09/2022,00:46:29,0.000,0.0,0.0,0.0
04/09/2022,00:47:29,0.000,0.0,0.0,0.0
04/09/2022,00:48:29,0.001,0.0,0.0,0.0
04/09/2022,00:49:29,0.000,0.0,0.0,0.0
04/09/2022,00:50:29,0.000,0.0,0.0,0.0
04/09/2022,00:51:30,0.000,0.0,0.0,0.0
04/09/2022,00:52:30,0.000,0.0,0.0,0.0
04/09/2022,00:53:38,0.000,0.0,0.0,0.0
04/09/2022,00:55:30,0.000,0.0,0.0,0.0
04/09/2022,00:56:29,0.000,0.0,0.0,0.0
04/09/2022,00:57:29,0.000,0.0,0.0,0.0
04/09/2022,00:58:29,0.000,0.0,0.0,0.0
04/09/2022,00:59:27,0.000,0.0,0.0,0.0
04/09/2022,01:00:27,0.000,0.0,0.0,0.0
04/09/2022,01:01:29,-0.000,0.0,0.0,0.0
04/09/2022,01:02:29,0.000,0.0,0.0,0.0
04/09/2022,01:03:29,0.000,0.0,0.0,0.0
04/09/2022,01:04:29,0.000,0.0,0.0,0.0
04/09/2022,01:05:38,0.000,0.0,0.0,0.0
04/09/2022,01:07:30,0.000,0.0,0.0,0.0
04/09/2022,01:08:37,0.000,0.0,0.0,0.0
04/09/2022,01:09:29,-0.001,0.0,0.0,0.0
04/09/2022,01:10:27,0.000,0.0,0.0,0.0
04/09/2022,01:11:35,0.000,0.0,0.0,0.0
04/09/2022,01:12:29,0.000,0.0,0.0,0.0
04/09/2022,01:13:27,0.000,0.0,0.0,0.0
04/09/2022,01:14:28,0.000,0.0,0.0,0.0
04/09/2022,01:15:29,0.000,0.0,0.0,0.0
04/09/2022,01:16:29,0.000,0.0,0.0,0.0
04/09/2022,01:17:29,0.000,0.0,0.0,0.0
04/09/2022,01:18:29,0.000,0.0,0.0,0.0
04/09/2022,01:19:27,0.000,0.0,0.0,0.0
04/09/2022,01:20:27,0.000,0.0,0.0,0.0
04/09/2022,01:21:30,0.000,0.0,0.0,0.0
04/09/2022,01:22:30,0.000,0.0,0.0,0.0
04/09/2022,01:23:38,0.000,0.0,0.0,0.0
04/09/2022,01:25:47,0.001,0.0,0.0,0.0
04/09/2022,01:27:30,-0.001,0.0,0.0,0.0
04/09/2022,01:28:29,0.000,0.0,0.0,0.0
04/09/2022,01:29:29,0.000,0.0,0.0,0.0
04/09/2022,01:30:30,0.000,0.0,0.0,0.0
04/09/2022,01:31:29,0.000,0.0,0.0,0.0
04/09/2022,01:32:29,0.000,0.0,0.0,0.0
04/09/2022,01:33:29,0.000,0.0,0.0,0.0
04/09/2022,01:34:29,0.000,0.0,0.0,0.0
04/09/2022,01:35:29,0.000,0.0,0.0,0.0
04/09/2022,01:36:30,0.000,0.0,0.0,0.0
04/09/2022,01:37:29,0.000,0.0,0.0,0.0
04/09/2022,01:38:29,0.000,0.0,0.0,0.0
04/09/2022,01:39:30,0.000,0.0,0.0,0.0
04/09/2022,01:40:30,0.000,0.0,0.0,0.0
04/09/2022,01:41:30,0.000,0.0,0.0,0.0
04/09/2022,01:42:29,0.000,0.0,0.0,0.0
04/09/2022,01:43:29,0.000,0.0,0.0,0.0
04/09/2022,01:44:29,0.000,0.0,0.0,0.0
04/09/2022,01:45:29,0.000,0.0,0.0,0.0
04/09/2022,01:46:29,0.000,0.0,0.0,0.0
04/09/2022,01:47:29,-0.001,0.0,0.0,0.0
04/09/2022,01:48:29,0.000,0.0,0.0,0.0
04/09/2022,01:49:29,0.000,0.0,0.0,0.0
04/09/2022,01:50:30,0.000,0.0,0.0,0.0
04/09/2022,01:51:40,0.000,0.0,0.0,0.0
04/09/2022,01:53:31,0.000,0.0,0.0,0.0
04/09/2022,01:54:30,0.000,0.0,0.0,0.0
04/09/2022,01:55:29,0.000,0.0,0.0,0.0
04/09/2022,01:56:30,-0.001,0.0,0.0,0.0
04/09/2022,01:57:30,-0.001,0.0,0.0,0.0
04/09/2022,01:58:30,0.000,0.0,0.0,0.0
04/09/2022,01:59:29,0.000,0.0,0.0,0.0
04/09/2022,02:00:29,0.000,0.0,0.0,0.0
04/09/2022,02:01:29,-0.000,0.0,0.0,0.0
04/09/2022,02:02:29,0.000,0.0,0.0,0.0
04/09/2022,02:03:29,0.000,0.0,0.0,0.0
04/09/2022,02:04:29,0.000,0.0,0.0,0.0
04/09/2022,02:05:29,0.000,0.0,0.0,0.0
04/09/2022,02:06:38,0.000,0.0,0.0,0.0
04/09/2022,02:07:29,0.000,0.0,0.0,0.0
04/09/2022,02:08:30,0.000,0.0,0.0,0.0
04/09/2022,02:09:37,-0.001,0.0,0.0,0.0
04/09/2022,02:10:29,-0.000,0.0,0.0,0.0
04/09/2022,02:11:29,0.000,0.0,0.0,0.0
04/09/2022,02:12:37,-0.001,0.0,0.0,0.0
04/09/2022,02:13:29,0.000,0.0,0.0,0.0
04/09/2022,02:14:29,0.000,0.0,0.0,0.0
04/09/2022,02:15:29,0.000,0.0,0.0,0.0
04/09/2022,02:16:29,0.000,0.0,0.0,0.0
04/09/2022,02:17:29,0.000,0.0,0.0,0.0
04/09/2022,02:18:29,0.000,0.0,0.0,0.0
04/09/2022,02:19:29,0.000,0.0,0.0,0.0
04/09/2022,02:20:29,0.001,0.0,0.0,0.0
04/09/2022,02:21:29,0.000,0.0,0.0,0.0
04/09/2022,02:22:38,0.000,0.0,0.0,0.0
04/09/2022,02:24:30,0.000,0.0,0.0,0.0
04/09/2022,02:25:29,-0.001,0.0,0.0,0.0
04/09/2022,02:26:29,0.000,0.0,0.0,0.0
04/09/2022,02:27:29,0.000,0.0,0.0,0.0
04/09/2022,02:28:29,0.000,0.0,0.0,0.0
04/09/2022,02:29:31,0.000,0.0,0.0,0.0
04/09/2022,02:30:30,0.000,0.0,0.0,0.0
04/09/2022,02:31:29,0.000,0.0,0.0,0.0
04/09/2022,02:32:30,0.000,0.0,0.0,0.0
04/09/2022,02:33:30,0.000,0.0,0.0,0.0
04/09/2022,02:34:37,0.000,0.0,0.0,0.0
04/09/2022,02:36:30,-0.001,0.0,0.0,0.0
04/09/2022,02:37:29,0.000,0.0,0.0,0.0
04/09/2022,02:38:27,0.000,0.0,0.0,0.0
04/09/2022,02:39:28,-0.000,0.0,0.0,0.0
04/09/2022,02:40:38,0.000,0.0,0.0,0.0
04/09/2022,02:42:30,-0.001,0.0,0.0,0.0
04/09/2022,02:43:29,-0.000,0.0,0.0,0.0
04/09/2022,02:44:31,0.000,0.0,0.0,0.0
04/09/2022,02:45:29,-0.000,0.0,0.0,0.0
04/09/2022,02:46:29,0.000,0.0,0.0,0.0
04/09/2022,02:47:29,0.000,0.0,0.0,0.0
04/09/2022,02:48:29,-0.000,0.0,0.0,0.0
04/09/2022,02:49:31,0.000,0.0,0.0,0.0
04/09/2022,02:50:29,-0.000,0.0,0.0,0.0
04/09/2022,02:51:27,0.001,0.0,0.0,0.0
04/09/2022,02:52:35,0.000,0.0,0.0,0.0
04/09/2022,02:53:30,0.000,0.0,0.0,0.0
04/09/2022,02:54:30,0.000,0.0,0.0,0.0
04/09/2022,02:55:30,0.001,0.0,0.0,0.0
04/09/2022,02:56:30,-0.000,0.0,0.0,0.0
04/09/2022,02:57:29,0.000,0.0,0.0,0.0
04/09/2022,02:58:29,-0.000,0.0,0.0,0.0
04/09/2022,02:59:29,0.000,0.0,0.0,0.0
04/09/2022,03:00:29,0.000,0.0,0.0,0.0
04/09/2022,03:01:27,0.000,0.0,0.0,0.0
04/09/2022,03:02:36,0.000,0.0,0.0,0.0
04/09/2022,03:03:29,0.000,0.0,0.0,0.0
04/09/2022,03:04:29,0.000,0.0,0.0,0.0
04/09/2022,03:05:29,0.000,0.0,0.0,0.0
04/09/2022,03:06:29,-0.000,0.0,0.0,0.0
04/09/2022,03:07:47,0.000,0.0,0.0,0.0
04/09/2022,03:09:31,0.000,0.0,0.0,0.0
04/09/2022,03:10:30,0.000,0.0,0.0,0.0
04/09/2022,03:11:29,0.000,0.0,0.0,0.0
04/09/2022,03:12:29,-0.001,0.0,0.0,0.0
04/09/2022,03:13:29,0.000,0.0,0.0,0.0
04/09/2022,03:14:30,-0.001,0.0,0.0,0.0
04/09/2022,03:15:30,0.000,0.0,0.0,0.0
04/09/2022,03:16:30,-0.000,0.0,0.0,0.0
04/09/2022,03:17:30,0.000,0.0,0.0,0.0
04/09/2022,03:18:47,0.000,0.0,0.0,0.0
04/09/2022,03:20:29,0.000,0.0,0.0,0.0
04/09/2022,03:21:29,0.000,0.0,0.0,0.0
04/09/2022,03:22:30,0.000,0.0,0.0,0.0
04/09/2022,03:23:36,-0.001,0.0,0.0,0.0
04/09/2022,03:24:27,0.000,0.0,0.0,0.0
04/09/2022,03:25:29,0.000,0.0,0.0,0.0
04/09/2022,03:26:29,0.000,0.0,0.0,0.0
04/09/2022,03:27:30,0.000,0.0,0.0,0.0
04/09/2022,03:28:29,0.000,0.0,0.0,0.0
04/09/2022,03:29:29,0.000,0.0,0.0,0.0
04/09/2022,03:30:30,-0.000,0.0,0.0,0.0
04/09/2022,03:31:30,0.000,0.0,0.0,0.0
04/09/2022,03:32:29,0.000,0.0,0.0,0.0
04/09/2022,03:33:38,0.000,0.0,0.0,0.0
04/09/2022,03:35:30,0.000,0.0,0.0,0.0
04/09/2022,03:36:30,0.000,0.0,0.0,0.0
04/09/2022,03:37:29,0.000,0.0,0.0,0.0
04/09/2022,03:38:29,0.000,0.0,0.0,0.0
04/09/2022,03:39:29,0.000,0.0,0.0,0.0
04/09/2022,03:40:29,0.000,0.0,0.0,0.0
04/09/2022,03:41:29,-0.001,0.0,0.0,0.0
04/09/2022,03:42:29,0.000,0.0,0.0,0.0
04/09/2022,03:43:30,0.000,0.0,0.0,0.0
04/09/2022,03:44:29,0.000,0.0,0.0,0.0
04/09/2022,03:45:29,0.000,0.0,0.0,0.0
04/09/2022,03:46:29,0.000,0.0,0.0,0.0
04/09/2022,03:47:17,0.000,0.0,0.0,0.0
04/09/2022,03:48:30,0.000,0.0,0.0,0.0
04/09/2022,03:49:29,0.001,0.0,0.0,0.0
04/09/2022,03:50:30,0.000,0.0,0.0,0.0
04/09/2022,03:51:38,0.000,0.0,0.0,0.0
04/09/2022,03:53:30,0.000,0.0,0.0,0.0
04/09/2022,03:54:30,0.000,0.0,0.0,0.0
04/09/2022,03:55:27,0.000,0.0,0.0,0.0
04/09/2022,03:56:28,0.000,0.0,0.0,0.0
04/09/2022,03:57:29,0.000,0.0,0.0,0.0
04/09/2022,03:58:30,-0.000,0.0,0.0,0.0
04/09/2022,03:59:30,0.000,0.0,0.0,0.0
04/09/2022,04:00:29,0.000,0.0,0.0,0.0
04/09/2022,04:01:30,0.000,0.0,0.0,0.0
04/09/2022,04:02:30,0.000,0.0,0.0,0.0
04/09/2022,04:03:28,0.001,0.0,0.0,0.0
04/09/2022,04:04:28,0.000,0.0,0.0,0.0
04/09/2022,04:05:30,0.000,0.0,0.0,0.0
04/09/2022,04:06:30,-0.001,0.0,0.0,0.0
04/09/2022,04:07:30,0.000,0.0,0.0,0.0
04/09/2022,04:08:29,0.000,0.0,0.0,0.0
04/09/2022,04:09:30,0.000,0.0,0.0,0.0
04/09/2022,04:10:29,0.000,0.0,0.0,0.0
04/09/2022,04:11:29,0.000,0.0,0.0,0.0
04/09/2022,04:12:30,0.000,0.0,0.0,0.0
04/09/2022,04:13:30,-0.000,0.0,0.0,0.0
04/09/2022,04:14:30,0.000,0.0,0.0,0.0
04/09/2022,04:15:29,0.000,0.0,0.0,0.0
04/09/2022,04:16:29,0.000,0.0,0.0,0.0
04/09/2022,04:17:30,-0.000,0.0,0.0,0.0
04/09/2022,04:18:30,-0.001,0.0,0.0,0.0
04/09/2022,04:19:38,-0.000,0.0,0.0,0.0
04/09/2022,04:20:31,0.000,0.0,0.0,0.0
04/09/2022,04:21:30,0.001,0.0,0.0,0.0
04/09/2022,04:22:29,-0.001,0.0,0.0,0.0
04/09/2022,04:23:30,0.000,0.0,0.0,0.0
04/09/2022,04:24:30,0.000,0.0,0.0,0.0
04/09/2022,04:25:29,-0.001,0.0,0.0,0.0
04/09/2022,04:26:30,-0.000,0.0,0.0,0.0
04/09/2022,04:27:30,0.000,0.0,0.0,0.0
04/09/2022,04:28:29,0.001,0.0,0.0,0.0
04/09/2022,04:29:30,0.000,0.0,0.0,0.0
04/09/2022,04:30:29,0.000,0.0,0.0,0.0
04/09/2022,04:31:29,0.000,0.0,0.0,0.0
04/09/2022,04:32:29,-0.001,0.0,0.0,0.0
04/09/2022,04:33:30,-0.000,0.0,0.0,0.0
04/09/2022,04:34:38,0.000,0.0,0.0,0.0
04/09/2022,04:36:30,0.000,0.0,0.0,0.0
04/09/2022,04:37:30,-0.000,0.0,0.0,0.0
04/09/2022,04:38:29,-0.001,0.0,0.0,0.0
04/09/2022,04:39:29,-0.001,0.0,0.0,0.0
04/09/2022,04:40:29,-0.000,0.0,0.0,0.0
04/09/2022,04:41:29,-0.000,0.0,0.0,0.0
04/09/2022,04:42:29,0.001,0.0,0.0,0.0
04/09/2022,04:43:30,0.000,0.0,0.0,0.0
04/09/2022,04:44:38,-0.000,0.0,0.0,0.0
04/09/2022,04:45:30,-0.001,0.0,0.0,0.0
04/09/2022,04:46:29,0.001,0.0,0.0,0.0
04/09/2022,04:47:27,-0.000,0.0,0.0,0.0
04/09/2022,04:48:30,-0.001,0.0,0.0,0.0
04/09/2022,04:49:30,0.000,0.0,0.0,0.0
04/09/2022,04:50:38,0.000,0.0,0.0,0.0
04/09/2022,04:52:30,-0.000,0.0,0.0,0.0
04/09/2022,04:53:29,0.001,0.0,0.0,0.0
04/09/2022,04:54:30,0.000,0.0,0.0,0.0
04/09/2022,04:55:30,-0.000,0.0,0.0,0.0
04/09/2022,04:56:29,-0.001,0.0,0.0,0.0
04/09/2022,04:57:29,-0.000,0.0,0.0,0.0
04/09/2022,04:58:30,0.000,0.0,0.0,0.0
04/09/2022,04:59:29,-0.000,0.0,0.0,0.0
04/09/2022,05:00:29,-0.000,0.0,0.0,0.0
04/09/2022,05:01:30,0.000,0.0,0.0,0.0
04/09/2022,05:02:38,0.000,0.0,0.0,0.0
04/09/2022,05:04:31,-0.000,0.0,0.0,0.0
04/09/2022,05:05:30,-0.000,0.0,0.0,0.0
04/09/2022,05:06:29,0.000,0.0,0.0,0.0
04/09/2022,05:07:29,0.000,0.0,0.0,0.0
04/09/2022,05:08:29,-0.000,0.0,0.0,0.0
04/09/2022,05:09:29,-0.000,0.0,0.0,0.0
04/09/2022,05:10:29,0.000,0.0,0.0,0.0
04/09/2022,05:11:29,0.001,0.0,0.0,0.0
04/09/2022,05:12:38,0.000,0.0,0.0,0.0
04/09/2022,05:14:30,0.000,0.0,0.0,0.0
04/09/2022,05:15:30,0.000,0.0,0.0,0.0
04/09/2022,05:16:29,0.000,0.0,0.0,0.0
04/09/2022,05:17:29,0.000,0.0,0.0,0.0
04/09/2022,05:18:38,-0.000,0.0,0.0,0.0
04/09/2022,05:20:31,0.000,0.0,0.0,0.0
04/09/2022,05:21:28,0.000,0.0,0.0,0.0
04/09/2022,05:22:27,0.000,0.0,0.0,0.0
04/09/2022,05:23:30,0.000,0.0,0.0,0.0
04/09/2022,05:24:30,0.000,0.0,0.0,0.0
04/09/2022,05:25:30,0.000,0.0,0.0,0.0
04/09/2022,05:26:30,0.000,0.0,0.0,0.0
04/09/2022,05:27:30,0.000,0.0,0.0,0.0
04/09/2022,05:28:30,0.000,0.0,0.0,0.0
04/09/2022,05:29:29,0.000,0.0,0.0,0.0
04/09/2022,05:30:38,0.000,0.0,0.0,0.0
04/09/2022,05:32:28,0.000,0.0,0.0,0.0
04/09/2022,05:33:36,0.001,0.0,0.0,0.0
04/09/2022,05:34:30,0.001,0.0,0.0,0.0
04/09/2022,05:35:29,0.001,0.0,0.0,0.0
04/09/2022,05:36:30,0.001,0.0,0.0,0.0
04/09/2022,05:37:29,0.001,0.0,0.0,0.0
04/09/2022,05:38:29,0.002,0.0,0.0,0.0
04/09/2022,05:39:30,0.002,0.0,0.0,0.0
04/09/2022,05:40:30,0.001,0.0,0.0,0.0
04/09/2022,05:41:29,0.002,0.0,0.0,0.0
04/09/2022,05:42:29,0.002,0.0,0.0,0.0
04/09/2022,05:43:38,0.001,0.0,0.0,0.0
04/09/2022,05:45:29,0.002,0.0,0.0,0.0
04/09/2022,05:46:27,0.001,0.0,0.0,0.0
04/09/2022,05:47:30,0.002,0.0,0.0,0.0
04/09/2022,05:48:30,0.001,0.0,0.0,0.0
04/09/2022,05:49:46,0.002,0.0,0.0,0.0
04/09/2022,05:51:30,0.002,0.0,0.0,0.0
04/09/2022,05:52:29,0.002,0.0,0.0,0.0
04/09/2022,05:53:30,0.003,0.0,0.0,0.0
04/09/2022,05:54:30,0.003,0.0,0.0,0.0
04/09/2022,05:55:30,0.002,0.0,0.0,0.0
04/09/2022,05:56:30,0.003,0.0,0.0,0.0
04/09/2022,05:57:30,0.003,0.0,0.0,0.0
04/09/2022,05:58:30,0.002,0.0,0.0,0.0
04/09/2022,05:59:30,0.004,0.0,0.0,0.0
04/09/2022,06:00:30,0.003,0.0,0.0,0.0
04/09/2022,06:01:38,0.004,0.0,0.0,0.0
04/09/2022,06:03:31,0.005,0.0,0.0,0.0
04/09/2022,06:04:29,0.005,0.0,0.0,0.0
04/09/2022,06:05:30,0.005,0.0,0.0,0.0
04/09/2022,06:06:30,0.005,0.0,0.0,0.0
04/09/2022,06:07:30,0.006,0.0,0.0,0.0
04/09/2022,06:08:29,0.005,0.0,0.0,0.0
04/09/2022,06:09:30,0.007,0.0,0.0,0.0
04/09/2022,06:10:38,0.006,0.0,0.0,0.0
04/09/2022,06:12:30,0.008,0.0,0.0,0.0
04/09/2022,06:13:29,0.008,0.0,0.001,0.001
04/09/2022,06:14:30,0.008,0.0,0.001,0.0
04/09/2022,06:15:30,0.008,0.0,0.001,0.0
04/09/2022,06:16:30,0.009,0.0,0.001,0.0
04/09/2022,06:17:38,0.009,0.0,0.001,0.0
04/09/2022,06:18:30,0.009,0.0,0.001,0.0
04/09/2022,06:19:30,0.009,0.0,0.001,0.0
04/09/2022,06:20:38,0.010,0.0,0.002,0.001
04/09/2022,06:22:31,0.010,0.0,0.002,0.0
04/09/2022,06:23:30,0.010,0.0,0.002,0.0
04/09/2022,06:24:30,0.010,0.0,0.002,0.0
04/09/2022,06:25:30,0.011,0.0,0.002,0.0
04/09/2022,06:26:29,0.011,0.0,0.003,0.001
04/09/2022,06:27:29,0.011,0.0,0.003,0.0
04/09/2022,06:28:29,0.010,0.0,0.003,0.0
04/09/2022,06:29:27,0.013,0.0,0.003,0.0
04/09/2022,06:30:28,0.013,0.0,0.003,0.0
04/09/2022,06:31:28,0.013,0.0,0.003,0.0
04/09/2022,06:32:28,0.013,0.0,0.004,0.001
04/09/2022,06:33:29,0.014,0.0,0.004,0.0
04/09/2022,06:34:29,0.015,0.0,0.004,0.0
04/09/2022,06:35:38,0.015,0.0,0.004,0.0
04/09/2022,06:37:30,0.015,0.0,0.005,0.001
04/09/2022,06:38:29,0.015,0.0,0.005,0.0
04/09/2022,06:39:30,0.015,0.0,0.005,0.0
04/09/2022,06:40:30,0.016,0.0,0.006,0.001
04/09/2022,06:41:29,0.016,0.0,0.006,0.0
04/09/2022,06:42:30,0.017,0.0,0.006,0.0
04/09/2022,06:43:30,0.018,0.0,0.006,0.0
04/09/2022,06:44:30,0.018,0.0,0.007,0.001
04/09/2022,06:45:38,0.019,0.0,0.007,0.0
04/09/2022,06:47:30,0.020,0.0,0.008,0.001
04/09/2022,06:48:30,0.020,0.0,0.008,0.0
04/09/2022,06:49:30,0.018,0.0,0.008,0.0
04/09/2022,06:50:29,0.020,0.0,0.009,0.001
04/09/2022,06:51:38,0.020,0.0,0.009,0.0
04/09/2022,06:53:31,0.021,0.0,0.01,0.001
04/09/2022,06:54:30,0.022,0.0,0.01,0.0
04/09/2022,06:55:29,0.023,0.0,0.01,0.0
04/09/2022,06:56:30,0.023,0.0,0.011,0.001
04/09/2022,06:57:30,0.025,0.0,0.011,0.0
04/09/2022,06:58:30,0.025,0.0,0.012,0.001
04/09/2022,06:59:30,0.026,0.0,0.012,0.0
04/09/2022,07:00:30,0.027,0.0,0.012,0.0
04/09/2022,07:01:29,0.027,0.0,0.013,0.001
04/09/2022,07:02:30,0.029,0.0,0.013,0.0
04/09/2022,07:03:38,0.029,0.0,0.014,0.001
04/09/2022,07:05:30,0.031,0.0,0.015,0.001
04/09/2022,07:06:30,0.033,0.0,0.015,0.0
04/09/2022,07:07:29,0.033,0.0,0.016,0.001
04/09/2022,07:08:30,0.035,0.0,0.016,0.0
04/09/2022,07:09:30,0.035,0.0,0.017,0.001
04/09/2022,07:10:31,0.038,0.0,0.018,0.001
04/09/2022,07:11:30,0.040,0.0,0.018,0.0
04/09/2022,07:12:28,0.043,0.0,0.019,0.001
04/09/2022,07:13:27,0.046,0.0,0.02,0.001
04/09/2022,07:14:30,0.048,0.0,0.021,0.001
04/09/2022,07:15:30,0.052,0.0,0.021,0.0
04/09/2022,07:16:38,0.056,0.0,0.022,0.001
04/09/2022,07:17:30,0.058,0.0,0.023,0.001
04/09/2022,07:18:30,0.061,0.0,0.024,0.001
04/09/2022,07:19:38,0.064,0.0,0.025,0.001
04/09/2022,07:20:30,0.066,0.0,0.026,0.001
04/09/2022,07:21:30,0.068,0.0,0.027,0.001
04/09/2022,07:22:30,0.070,0.0,0.029,0.002
04/09/2022,07:23:30,0.074,0.0,0.03,0.001
04/09/2022,07:24:30,0.075,0.0,0.031,0.001
04/09/2022,07:25:30,0.077,0.0,0.032,0.001
04/09/2022,07:26:30,0.080,0.0,0.034,0.002
04/09/2022,07:27:30,0.082,0.0,0.035,0.001
04/09/2022,07:28:29,0.084,0.0,0.036,0.001
04/09/2022,07:29:29,0.087,0.0,0.038,0.002
04/09/2022,07:30:30,0.088,0.0,0.039,0.001
04/09/2022,07:31:28,0.089,0.0,0.041,0.002
04/09/2022,07:32:28,0.090,0.0,0.042,0.001
04/09/2022,07:33:30,0.088,0.0,0.044,0.002
04/09/2022,07:34:38,0.092,0.0,0.045,0.001
04/09/2022,07:36:31,0.091,0.0,0.048,0.003
04/09/2022,07:37:28,0.087,0.0,0.05,0.002
04/09/2022,07:38:27,0.090,0.0,0.051,0.001
04/09/2022,07:39:30,0.093,0.0,0.053,0.002
04/09/2022,07:40:30,0.094,0.0,0.054,0.001
04/09/2022,07:41:30,0.100,0.0,0.056,0.002
04/09/2022,07:42:30,0.104,0.0,0.058,0.002
04/09/2022,07:43:29,0.106,0.0,0.059,0.001
04/09/2022,07:44:39,0.110,0.0,0.061,0.002
04/09/2022,07:46:30,0.122,0.0,0.065,0.004
04/09/2022,07:47:30,0.124,0.0,0.067,0.002
04/09/2022,07:48:29,0.119,0.0,0.069,0.002
04/09/2022,07:49:37,0.127,0.0,0.071,0.002
04/09/2022,07:50:29,0.119,0.0,0.073,0.002
04/09/2022,07:51:30,0.109,0.0,0.075,0.002
04/09/2022,07:52:29,0.107,0.0,0.077,0.002
04/09/2022,07:53:28,0.101,0.0,0.078,0.001
04/09/2022,07:54:30,0.090,0.0,0.08,0.002
04/09/2022,07:55:30,0.078,0.0,0.081,0.001
04/09/2022,07:56:28,0.078,0.0,0.083,0.002
04/09/2022,07:57:28,0.087,0.0,0.084,0.001
04/09/2022,07:58:30,0.096,0.0,0.086,0.002
04/09/2022,07:59:30,0.104,0.0,0.087,0.001
04/09/2022,08:00:30,0.112,0.0,0.089,0.002
04/09/2022,08:01:31,0.138,0.0,0.091,0.002
04/09/2022,08:02:38,0.154,0.0,0.094,0.003
04/09/2022,08:04:30,0.160,0.0,0.099,0.005
04/09/2022,08:05:30,0.163,0.0,0.102,0.003
04/09/2022,08:06:29,0.161,0.0,0.104,0.002
04/09/2022,08:07:30,0.157,0.0,0.107,0.003
04/09/2022,08:08:30,0.157,0.0,0.11,0.003
04/09/2022,08:09:29,0.159,0.0,0.112,0.002
04/09/2022,08:10:30,0.163,0.0,0.115,0.003
04/09/2022,08:11:30,0.170,0.0,0.118,0.003
04/09/2022,08:12:30,0.179,0.0,0.121,0.003
04/09/2022,08:13:30,0.185,0.0,0.124,0.003
04/09/2022,08:14:30,0.188,0.0,0.127,0.003
04/09/2022,08:15:30,0.189,0.0,0.13,0.003
04/09/2022,08:16:30,0.198,0.0,0.133,0.003
04/09/2022,08:17:30,0.207,0.0,0.136,0.003
04/09/2022,08:18:29,0.208,0.0,0.14,0.004
04/09/2022,08:19:30,0.212,0.0,0.143,0.003
04/09/2022,08:20:38,0.235,1.0,0.148,0.005
04/09/2022,08:22:31,0.258,1.0,0.155,0.007
04/09/2022,08:23:30,0.256,1.0,0.16,0.005
04/09/2022,08:24:38,0.281,1.0,0.165,0.005
04/09/2022,08:26:28,0.294,1.0,0.173,0.008
04/09/2022,08:27:28,0.287,1.0,0.178,0.005
04/09/2022,08:28:30,0.292,1.0,0.183,0.005
04/09/2022,08:29:30,0.290,1.0,0.188,0.005
04/09/2022,08:30:30,0.286,1.0,0.193,0.005
04/09/2022,08:31:30,0.295,1.0,0.198,0.005
04/09/2022,08:32:30,0.294,1.0,0.203,0.005
04/09/2022,08:33:30,0.303,1.0,0.208,0.005
04/09/2022,08:34:38,0.299,1.0,0.213,0.005
04/09/2022,08:35:30,0.305,1.0,0.218,0.005
04/09/2022,08:36:30,0.292,1.0,0.223,0.005
04/09/2022,08:37:30,0.298,1.0,0.228,0.005
04/09/2022,08:38:30,0.296,1.0,0.232,0.004
04/09/2022,08:39:30,0.310,1.0,0.237,0.005
04/09/2022,08:40:30,0.299,1.0,0.243,0.006
04/09/2022,08:41:29,0.302,1.0,0.248,0.005
04/09/2022,08:42:28,0.310,1.0,0.252,0.004
04/09/2022,08:43:28,0.315,1.0,0.258,0.006
04/09/2022,08:44:38,0.318,1.0,0.264,0.006
04/09/2022,08:46:30,0.325,1.0,0.274,0.01
04/09/2022,08:47:29,0.328,1.0,0.279,0.005
04/09/2022,08:48:30,0.338,1.0,0.285,0.006
04/09/2022,08:49:36,0.348,1.0,0.291,0.006
04/09/2022,08:50:28,0.354,1.0,0.296,0.005
04/09/2022,08:51:30,0.357,1.0,0.302,0.006
04/09/2022,08:52:30,0.351,1.0,0.308,0.006
04/09/2022,08:53:30,0.353,1.0,0.314,0.006
04/09/2022,08:54:29,0.355,1.0,0.32,0.006
04/09/2022,08:55:30,0.364,1.0,0.326,0.006
04/09/2022,08:56:30,0.379,1.0,0.332,0.006
04/09/2022,08:57:30,0.391,1.0,0.338,0.006
04/09/2022,08:58:29,0.399,1.0,0.345,0.007
04/09/2022,08:59:30,0.390,1.0,0.352,0.007
04/09/2022,09:00:30,0.372,1.0,0.358,0.006
04/09/2022,09:01:30,0.350,1.0,0.364,0.006
04/09/2022,09:02:30,0.335,1.0,0.37,0.006
04/09/2022,09:03:30,0.338,1.0,0.375,0.005
04/09/2022,09:04:30,0.342,1.0,0.381,0.006
04/09/2022,09:05:30,0.323,1.0,0.387,0.006
04/09/2022,09:06:19,0.307,1.0,0.391,0.004
04/09/2022,09:07:29,0.287,1.0,0.397,0.006
04/09/2022,09:08:30,0.274,1.0,0.401,0.004
04/09/2022,09:09:42,0.274,1.0,0.407,0.006
04/09/2022,09:11:31,0.318,1.0,0.416,0.009
04/09/2022,09:12:30,0.338,1.0,0.421,0.005
04/09/2022,09:13:30,0.348,1.0,0.427,0.006
04/09/2022,09:14:29,0.353,1.0,0.433,0.006
04/09/2022,09:15:30,0.353,1.0,0.439,0.006
04/09/2022,09:16:30,0.341,1.0,0.444,0.005
04/09/2022,09:17:46,0.321,1.0,0.451,0.007
04/09/2022,09:19:30,0.304,1.0,0.46,0.009
04/09/2022,09:20:30,0.306,1.0,0.465,0.005
04/09/2022,09:21:30,0.299,1.0,0.47,0.005
04/09/2022,09:22:30,0.295,1.0,0.475,0.005
04/09/2022,09:23:30,0.287,1.0,0.48,0.005
04/09/2022,09:24:30,0.282,1.0,0.485,0.005
04/09/2022,09:25:30,0.285,1.0,0.49,0.005
04/09/2022,09:26:30,0.295,1.0,0.494,0.004
04/09/2022,09:27:30,0.322,1.0,0.499,0.005
04/09/2022,09:28:30,0.339,1.0,0.505,0.006
04/09/2022,09:29:30,0.320,1.0,0.511,0.006
04/09/2022,09:30:30,0.296,1.0,0.516,0.005
04/09/2022,09:31:30,0.283,1.0,0.521,0.005
04/09/2022,09:32:30,0.284,1.0,0.525,0.004
04/09/2022,09:33:30,0.301,1.0,0.53,0.005
04/09/2022,09:34:30,0.282,1.0,0.535,0.005
04/09/2022,09:35:38,0.298,1.0,0.54,0.005
04/09/2022,09:37:31,0.354,1.0,0.55,0.01
04/09/2022,09:38:30,0.367,1.0,0.556,0.006
04/09/2022,09:39:30,0.372,1.0,0.563,0.007
04/09/2022,09:40:30,0.374,1.0,0.569,0.006
04/09/2022,09:41:30,0.384,1.0,0.575,0.006
04/09/2022,09:42:38,0.404,1.0,0.582,0.007
04/09/2022,09:43:30,0.415,1.0,0.588,0.006
04/09/2022,09:44:30,0.434,1.0,0.595,0.007
04/09/2022,09:45:30,0.442,1.0,0.603,0.008
04/09/2022,09:46:30,0.435,1.0,0.61,0.007
04/09/2022,09:47:30,0.421,1.0,0.617,0.007
04/09/2022,09:48:30,0.407,1.0,0.624,0.007
04/09/2022,09:49:30,0.399,1.0,0.631,0.007
04/09/2022,09:50:30,0.397,1.0,0.637,0.006
04/09/2022,09:51:30,0.406,1.0,0.644,0.007
04/09/2022,09:52:30,0.430,1.0,0.651,0.007
04/09/2022,09:53:28,0.443,1.0,0.658,0.007
04/09/2022,09:54:28,0.446,1.0,0.666,0.008
04/09/2022,09:55:30,0.431,1.0,0.673,0.007
04/09/2022,09:56:30,0.437,1.0,0.68,0.007
04/09/2022,09:57:30,0.468,1.0,0.688,0.008
04/09/2022,09:58:30,0.486,1.0,0.696,0.008
04/09/2022,09:59:32,0.504,1.0,0.704,0.008
04/09/2022,10:00:30,0.525,1.0,0.713,0.009
04/09/2022,10:01:30,0.550,1.0,0.722,0.009
04/09/2022,10:02:30,0.581,1.0,0.731,0.009
04/09/2022,10:03:39,0.604,1.0,0.742,0.011
04/09/2022,10:05:30,0.628,1.0,0.761,0.019
04/09/2022,10:06:30,0.633,1.0,0.772,0.011
04/09/2022,10:07:30,0.606,1.0,0.782,0.01
04/09/2022,10:08:30,0.547,1.0,0.792,0.01
04/09/2022,10:09:30,0.509,1.0,0.801,0.009
04/09/2022,10:10:31,0.477,1.0,0.809,0.008
04/09/2022,10:11:31,0.473,1.0,0.817,0.008
04/09/2022,10:12:30,0.500,1.0,0.825,0.008
04/09/2022,10:13:30,0.502,1.0,0.833,0.008
04/09/2022,10:14:30,0.525,1.0,0.842,0.009
04/09/2022,10:15:30,0.524,1.0,0.851,0.009
04/09/2022,10:16:30,0.508,1.0,0.859,0.008
04/09/2022,10:17:30,0.486,1.0,0.867,0.008
04/09/2022,10:18:38,0.464,1.0,0.876,0.009
04/09/2022,10:20:30,0.561,1.0,0.892,0.016
04/09/2022,10:21:30,0.607,1.0,0.902,0.01
04/09/2022,10:22:30,0.613,1.0,0.912,0.01
04/09/2022,10:23:30,0.613,1.0,0.922,0.01
04/09/2022,10:24:30,0.608,1.0,0.932,0.01
04/09/2022,10:25:30,0.606,1.0,0.942,0.01
04/09/2022,10:26:30,0.615,1.0,0.953,0.011
04/09/2022,10:27:30,0.669,2.0,0.963,0.01
04/09/2022,10:28:30,0.723,2.0,0.975,0.012
04/09/2022,10:29:30,0.766,2.0,0.987,0.012
04/09/2022,10:30:30,0.788,2.0,1.0,0.013
04/09/2022,10:31:30,0.778,2.0,1.013,0.013
04/09/2022,10:32:30,0.739,2.0,1.026,0.013
04/09/2022,10:33:31,0.680,2.0,1.038,0.012
04/09/2022,10:34:39,0.602,1.0,1.05,0.012
04/09/2022,10:36:31,0.524,1.0,1.068,0.018
04/09/2022,10:37:31,0.483,1.0,1.076,0.008
04/09/2022,10:38:30,0.426,1.0,1.083,0.007
04/09/2022,10:39:30,0.388,1.0,1.09,0.007
04/09/2022,10:40:30,0.382,1.0,1.097,0.007
04/09/2022,10:41:30,0.402,1.0,1.103,0.006
04/09/2022,10:42:30,0.445,1.0,1.11,0.007
04/09/2022,10:43:30,0.499,1.0,1.118,0.008
04/09/2022,10:44:30,0.549,1.0,1.127,0.009
04/09/2022,10:45:30,0.575,1.0,1.136,0.009
04/09/2022,10:46:38,0.581,1.0,1.147,0.011
04/09/2022,10:48:31,0.704,2.0,1.167,0.02
04/09/2022,10:49:30,0.802,2.0,1.179,0.012
04/09/2022,10:50:30,0.827,2.0,1.193,0.014
04/09/2022,10:51:30,0.835,2.0,1.207,0.014
04/09/2022,10:52:28,0.761,2.0,1.22,0.013
04/09/2022,10:53:29,0.650,1.0,1.231,0.011
04/09/2022,10:54:31,0.559,1.0,1.242,0.011